Regional Weather Roundup
Issued by NWS Cleveland, OH

Home | Current Version | Previous Version | Text Only | Print | Product List | Glossary Off
Versions: 1 2 3 4 5 6 7 8 9 10 11 12 13 14 15 16 17 18 19 20 21 22 23 24 25 26 27 28 29 30 31 32 33 34 35 36 37 38 39 40 41 42 43 44 45 46 47 48 49 50

000
ASUS41 KCLE 221902
RWRCLE
OHIO REGIONAL WEATHER ROUNDUP
NATIONAL WEATHER SERVICE CLEVELAND, OH
300 PM EDT TUE AUG 22 2017

NOTE: "FAIR" INDICATES FEW OR NO CLOUDS BELOW 12,000 FEET WITH NO
SIGNIFICANT WEATHER AND/OR OBSTRUCTIONS TO VISIBILITY.

OHZ001>008-015>018-024>027-034-035-043-044-222000-
   NORTHWEST OHIO

CITY           SKY/WX    TMP DP  RH WIND       PRES   REMARKS
DEFIANCE       CLOUDY    77  66  68 SW9G21    29.85F
FINDLAY        CLOUDY    77  67  71 SW16G24   29.86S
TOLEDO EXPRESS CLOUDY    76  68  76 SW22G28   29.83S
TOLEDO EXEC    CLOUDY    78  67  68 SW14      29.83S
LIMA           CLOUDY    76  70  82 W12       29.89S
$$

OHZ009>014-019>023-028>033-038-089-222000-
   NORTHEAST OHIO

CITY           SKY/WX    TMP DP  RH WIND       PRES   REMARKS
CLE-HOPKINS    CLOUDY    77  72  84 W15       29.85S
CLE-LAKEFRONT  CLOUDY    75  69  81 W20       29.81S
CUY CO. ARPT   CLOUDY    75  72  88 W12       29.83S
LORAIN-ELYRIA  LGT RAIN  74  66  76 W8        29.84F
ASHTABULA      LGT RAIN  74  74 100 W10       29.81S
AKRON-CANTON   PTSUNNY   84  66  54 W23G32    29.85F
WOOSTER        LGT RAIN  77  64  64 W21G32    29.88R
MANSFIELD      LGT RAIN  74  68  81 SW17G25   29.89S
YOUNGSTOWN     CLOUDY    83  69  62 SW20G25   29.80F
$$

OHZ042-051>053-060>062-070>072-077>081-222000-
  SOUTHWEST OHIO

CITY           SKY/WX    TMP DP  RH WIND       PRES   REMARKS
CINC-COVINGTON CLOUDY    81  73  76 NW6       29.93F
CINC-LUNKEN    CLOUDY    80  77  90 SW3       29.92F
HAMILTON       CLOUDY    79  70  74 W9        29.94F
DAYTON         PTSUNNY   74  70  87 SW12      29.93F
WRIGHT-PAT AFB PTSUNNY   74  71  91 SW9       29.91F
DAYTON GENERAL CLOUDY    75  67  76 SW9       29.93F
WILMINGTON     CLOUDY    77  72  84 NW12      29.93S
$$

OHZ036-037-039>041-045>050-054>059-063>069-073>076-082>088-222000-
  CENTRAL AND SOUTHEAST OHIO

CITY           SKY/WX    TMP DP  RH WIND       PRES   REMARKS
COLUMBUS       LGT RAIN  74  72  93 W18       29.91R
OSU AIRPORT    CLOUDY    72  70  93 W14G21    29.91S
BOLTON FIELD   CLOUDY    73  70  88 W15G22    29.92S
RICKENBACK AFB LGT RAIN  74  72  92 NW14      29.92R
NEWARK         CLOUDY    76  71  85 W9        29.90F
MARION         CLOUDY    74  67  78 SW12      29.89F
LANCASTER      LGT RAIN  72  70  93 W9        29.93R FOG
ZANESVILLE     TSTM      73  68  84 W14G22    29.89R
NEW PHILLY     NOT AVBL
$$



USA.gov is the U.S. government's official web portal to all federal, state and local government web resources and services.